Theta_e
338 336 338 338 333 333 329 333 332 333 332 334 337 337 337 338 338 338 338 335 333 330 334 333 332 331 331 332 332 332 331 331 331 329 329 328 327 326 326 325 325 324 324
340 338 336 338 335 335 335 334 334 336 335 337 337 337 337 337 337 337 338 337 333 332 334 333 333 334 334 333 332 332 331 330 329 328 326 325 324 323 322 322 321 320 320
342 342 339 338 338 336 337 335 337 336 337 337 336 337 337 336 336 336 337 337 336 334 334 334 332 333 333 333 332 331 330 329 328 326 324 322 320 319 319 318 317 317 316
343 344 342 340 339 339 338 338 339 338 337 337 337 336 336 336 336 336 337 336 336 335 334 334 332 332 332 333 332 331 330 328 326 324 321 318 317 315 314 314 313 312 311
341 345 342 342 340 340 339 338 337 338 338 336 336 336 335 335 336 336 336 336 336 336 334 333 331 332 333 333 331 330 328 325 323 320 318 315 311 309 309 310 311 312 312
343 342 344 341 343 340 340 340 338 338 337 338 336 336 336 337 335 334 334 335 335 335 334 334 332 332 332 332 330 329 325 322 319 317 315 312 311 310 310 310 310 310 310
345 341 345 341 343 342 340 339 339 339 338 338 337 336 336 336 334 333 333 334 334 334 334 333 333 331 332 331 330 327 322 321 318 315 313 311 310 311 310 309 308 306 306
346 343 345 343 341 340 340 339 339 339 339 338 337 333 331 330 331 331 331 332 332 331 332 333 332 332 331 331 329 326 322 320 318 315 313 311 310 309 308 308 308 307 306
346 344 342 344 343 341 341 340 339 339 339 338 337 333 326 330 326 325 325 326 326 327 328 329 331 330 330 330 329 324 320 318 317 315 311 310 310 309 307 306 307 306 307
346 344 341 341 341 343 342 340 341 339 339 337 336 334 331 328 327 325 319 320 322 322 323 325 326 327 325 325 324 322 318 317 315 313 311 311 310 308 307 307 307 308 308
344 342 340 340 340 339 338 338 340 340 338 337 335 332 331 327 324 321 323 317 316 318 319 321 322 322 323 322 321 320 317 315 313 311 310 311 309 307 306 305 305 305 305
340 340 339 338 338 338 338 337 338 339 339 338 336 333 331 325 320 320 318 315 314 316 317 317 318 319 320 320 319 318 317 314 311 310 309 311 308 305 304 303 303 303 303
339 338 338 337 338 339 337 336 337 337 337 336 335 332 331 330 328 325 320 313 312 312 312 313 314 315 316 317 317 318 316 311 310 308 310 309 306 304 303 301 301 300 299
336 337 337 338 337 335 333 331 331 331 332 331 331 331 330 329 327 326 323 316 309 306 306 311 313 311 312 313 314 316 312 310 308 308 306 306 304 303 301 300 297 296 296
334 334 334 333 332 331 330 330 328 327 328 327 326 326 326 327 326 325 324 322 319 314 308 307 309 311 310 310 309 309 309 308 307 305 306 304 303 301 300 297 295 294 292
333 332 331 330 329 328 326 325 324 324 324 324 323 323 323 323 323 321 321 321 318 317 316 309 305 307 306 307 306 306 307 305 304 305 304 303 302 299 297 293 291 291 289
329 328 327 326 325 324 323 322 321 320 320 320 320 320 320 319 318 318 318 318 317 315 313 305 306 305 303 305 304 304 303 303 304 303 303 301 299 297 294 290 290 288 288
327 326 325 324 323 322 321 320 319 317 317 318 318 318 317 317 317 317 316 316 316 315 312 304 303 302 302 302 303 301 301 301 301 301 300 299 296 295 290 288 288 285 285
322 321 321 320 319 319 318 317 316 315 315 314 314 314 314 314 315 315 314 315 314 314 312 308 302 301 300 299 299 299 300 300 299 299 296 295 293 291 288 287 285 285 284
320 319 319 318 317 316 315 314 314 313 312 312 311 311 311 311 311 312 312 312 312 312 310 307 302 300 298 297 297 296 294 295 293 293 292 291 289 287 285 284 284 285 285
318 317 316 316 315 314 313 313 313 312 311 310 310 309 309 309 308 309 309 309 309 309 308 304 299 297 295 295 295 294 291 291 291 291 289 288 287 286 285 284 284 285 283
312 312 311 311 311 310 307 306 302 304 305 307 308 308 308 308 307 306 306 307 308 306 306 303 298 296 295 294 293 291 289 289 289 289 288 287 286 285 285 284 284 283 283
310 309 308 307 308 308 307 302 299 300 301 302 303 303 303 304 304 304 305 305 305 305 305 305 300 298 295 294 292 291 290 291 291 288 288 287 286 285 285 285 285 283 282
306 306 306 306 306 305 304 301 300 299 299 300 300 302 302 302 303 302 302 301 301 301 302 302 301 301 300 296 293 292 290 290 290 288 289 288 287 287 286 287 285 283 282
303 303 304 303 302 301 302 300 299 298 298 298 299 300 302 302 303 301 299 299 300 300 299 300 300 300 297 294 292 291 290 290 289 288 289 289 289 287 286 285 284 283 282
302 302 302 302 302 302 299 296 295 296 297 298 299 300 301 301 301 299 299 298 298 299 299 298 297 298 297 294 291 292 291 290 289 289 289 289 288 286 285 284 283 283 282
Wind_Speed
23 24 21 20 18 18 19 19 15 15 12 14 12 8 6 6 9 6 3 5 6 8 11 11 11 12 13 15 13 12 11 11 10 8 7 6 6 5 4 3 3 3 4
24 25 23 23 20 22 18 20 18 19 15 14 13 11 11 9 8 7 7 7 9 11 13 12 14 13 13 15 17 16 15 15 12 11 9 8 6 5 6 7 8 8 6
25 26 25 21 21 24 21 20 20 18 16 14 13 14 12 13 11 9 8 9 12 14 16 17 15 17 16 17 18 19 17 15 14 12 12 11 10 9 8 7 6 6 5
28 26 25 24 22 19 19 18 11 16 17 13 15 14 14 13 12 13 14 9 12 14 17 19 19 19 18 20 19 20 19 17 16 15 13 10 8 7 5 4 4 2 1
34 23 28 23 25 20 20 17 20 15 16 17 15 15 15 15 13 12 11 13 12 14 16 20 22 20 21 23 21 20 17 17 17 14 12 12 9 9 9 10 9 9 9
34 33 27 28 25 26 20 18 19 20 20 19 19 11 13 12 13 14 14 13 14 14 18 20 21 23 24 26 24 23 22 20 17 15 14 13 11 10 11 11 11 8 8
35 36 26 30 17 26 23 20 20 20 19 16 9 4 11 16 15 17 19 19 19 19 20 23 24 24 27 29 27 26 23 21 20 18 16 15 13 12 11 9 8 5 5
36 37 29 29 24 21 24 24 20 20 18 17 6 4 2 8 19 22 23 22 21 21 16 19 24 28 30 33 31 31 25 23 20 19 17 17 17 13 13 9 5 4 2
36 33 37 30 22 24 25 26 23 24 18 17 20 8 2 5 2 6 18 26 26 25 25 23 25 29 34 40 37 33 29 27 24 23 22 20 17 13 10 12 11 10 12
31 30 30 36 32 24 24 25 22 24 21 20 19 21 14 6 3 2 8 16 19 22 24 24 26 29 28 31 38 36 34 32 29 25 22 21 18 16 15 12 12 15 14
26 24 25 30 31 29 30 29 23 20 25 23 22 11 22 15 12 5 3 4 9 18 22 25 26 25 28 30 34 36 33 32 30 29 25 23 21 18 15 12 9 9 11
22 24 25 27 25 26 25 25 24 24 26 26 26 24 19 7 9 8 4 5 7 10 18 23 25 27 28 32 36 37 35 32 30 26 22 26 27 21 17 12 6 5 7
28 27 26 26 25 26 24 22 23 21 19 21 23 24 24 24 20 16 10 4 6 11 9 18 24 26 27 29 34 36 38 36 33 26 22 24 27 21 16 14 10 6 6
29 27 25 23 20 18 17 16 15 16 14 14 15 17 18 21 20 22 16 11 2 7 9 13 15 24 26 28 32 38 38 36 32 30 24 27 29 17 15 8 7 7 7
26 22 21 18 16 12 11 10 9 7 7 7 8 10 13 16 16 19 22 23 12 3 4 8 13 16 26 27 24 33 39 35 34 31 38 32 20 17 12 10 12 10 8
25 22 19 16 14 13 11 9 8 8 9 9 10 12 13 13 15 17 19 22 23 15 4 10 12 15 20 24 21 28 33 30 32 38 34 24 19 16 13 13 13 10 8
20 18 18 16 13 12 11 10 7 5 5 6 8 9 10 11 16 16 16 18 22 20 9 2 11 15 17 25 26 30 32 32 35 35 28 22 21 17 15 16 13 11 10
19 20 18 17 15 13 11 10 8 6 6 7 7 8 10 10 14 16 17 18 21 23 16 9 13 15 17 26 31 34 35 36 34 28 23 24 23 19 21 18 13 13 11
18 17 16 14 13 12 10 8 7 5 4 4 5 7 9 9 12 15 19 17 20 18 20 14 12 16 16 28 31 32 37 37 33 29 27 24 22 24 21 16 15 12 8
18 16 14 13 10 8 6 5 3 1 3 6 7 7 10 12 14 14 15 19 19 16 16 16 10 10 20 25 30 30 24 32 29 29 27 25 24 21 19 17 15 11 7
16 14 11 9 7 4 4 4 1 2 5 7 9 11 14 15 16 17 17 15 12 15 16 17 11 11 18 25 31 27 28 36 33 33 30 27 25 23 20 17 15 12 14
13 10 8 7 6 4 3 3 3 5 8 11 13 15 16 17 18 18 19 20 20 17 21 20 16 19 24 31 30 37 34 30 15 31 32 26 29 26 23 19 16 17 16
10 7 5 3 1 0 4 4 7 10 12 14 15 18 20 19 19 19 19 20 20 21 25 28 26 26 24 35 34 34 36 39 25 34 35 22 27 24 21 18 18 19 17
4 4 3 1 2 6 6 7 11 15 16 17 19 20 20 22 21 19 20 20 20 19 20 27 31 31 33 36 45 43 36 28 19 32 28 14 28 23 22 24 20 18 18
3 2 5 4 9 11 12 13 15 18 20 22 22 21 21 23 22 18 18 19 21 24 22 21 24 32 27 31 41 33 33 26 18 24 28 18 21 21 26 26 21 20 18
4 6 6 8 11 14 16 19 21 19 22 26 27 27 25 22 20 17 16 16 20 24 22 23 20 24 23 30 42 45 47 32 25 12 23 16 27 21 8 23 25 23 19
Wind_Direction
201 196 204 201 209 211 210 216 213 221 211 230 237 253 247 261 276 315 320 232 259 226 218 214 218 221 222 225 226 226 224 220 209 212 218 227 223 220 211 206 214 234 258
203 196 207 193 201 203 215 209 214 219 209 221 227 229 233 239 243 254 268 251 225 226 219 219 228 220 222 227 226 223 213 210 213 205 202 207 229 235 232 236 247 250 250
209 196 205 211 205 204 205 212 215 216 209 216 223 224 222 236 236 238 243 251 241 226 224 232 223 222 220 221 221 219 215 208 209 200 203 222 240 243 250 261 260 258 252
208 208 201 211 209 206 212 212 225 216 213 221 221 224 233 228 237 239 234 248 243 232 232 228 226 229 229 215 217 211 206 211 204 217 233 229 222 224 207 191 214 216 221
206 216 206 216 209 209 210 218 225 230 217 222 227 221 228 229 229 237 243 244 254 237 245 239 234 231 233 223 214 202 199 210 222 217 209 194 205 178 164 136 129 114 100
202 210 214 213 211 200 195 197 208 227 218 223 221 214 224 220 227 231 242 251 254 247 244 244 237 234 236 223 214 202 199 213 214 208 183 168 153 142 130 123 117 115 113
204 207 211 216 219 194 197 210 215 229 222 228 201 202 212 218 229 227 233 235 229 237 237 241 238 237 227 225 222 209 197 197 191 182 173 159 145 139 126 107 111 111 113
200 205 208 212 215 209 212 208 214 221 231 226 180 138 264 267 251 243 237 241 244 242 237 238 243 240 233 223 224 212 201 192 189 180 175 157 153 149 134 125 121 113 63
200 204 211 203 206 209 208 211 214 219 216 208 208 178 144 229 184 238 243 247 247 248 247 243 232 225 231 228 225 211 199 190 187 179 171 163 157 152 136 131 116 129 100
196 201 207 213 215 209 206 212 218 221 219 205 212 218 223 184 206 280 246 250 251 253 251 247 241 236 231 223 218 208 199 194 186 178 174 167 162 147 135 127 111 103 106
195 199 208 208 215 222 224 224 220 221 226 223 213 198 226 232 227 218 261 259 269 256 252 248 246 243 236 228 219 212 203 195 187 180 172 168 152 147 140 132 136 133 117
197 201 204 207 209 212 218 220 222 229 226 229 234 231 221 195 203 202 228 226 240 266 258 253 247 244 238 232 223 215 202 194 187 182 175 164 150 149 139 133 121 113 95
199 202 200 199 200 207 214 217 217 224 226 227 233 236 242 244 241 235 220 203 230 246 257 257 248 240 238 233 227 220 204 191 184 178 172 172 149 143 134 132 130 111 101
192 191 194 197 202 209 219 224 225 232 239 247 253 250 251 252 250 247 233 199 220 233 239 243 257 241 236 229 224 216 197 191 182 172 167 159 150 152 154 163 179 156 116
196 188 187 180 178 187 184 195 199 206 223 237 259 267 269 269 260 261 247 242 226 235 241 237 237 248 235 227 214 198 189 183 178 184 170 159 154 176 167 174 154 167 154
169 170 170 175 173 171 174 180 186 202 216 225 239 249 253 251 251 253 257 254 244 234 255 197 224 240 228 222 206 195 187 182 178 171 160 161 176 172 173 182 169 172 158
155 155 157 159 164 164 168 177 184 200 225 241 249 256 260 267 273 264 268 264 253 248 248 189 224 233 211 208 191 188 181 175 177 175 173 174 172 186 185 173 174 156 150
151 153 155 157 161 166 174 178 176 185 204 223 246 266 274 275 270 271 274 268 265 251 226 192 199 199 206 203 192 178 174 172 170 170 178 177 183 185 176 173 161 159 153
144 147 152 154 156 162 167 173 182 192 233 259 280 282 285 283 280 282 279 261 243 241 229 217 200 198 185 185 177 176 177 176 176 175 182 178 178 178 174 167 156 153 140
146 145 147 156 160 164 167 150 158 184 328 307 289 301 301 294 287 282 271 280 264 249 232 222 199 166 169 171 169 161 158 165 152 167 179 176 170 168 168 163 154 145 142
146 147 146 143 152 159 156 162 138 356 284 288 294 293 294 293 291 285 281 275 268 258 240 218 184 168 165 167 176 173 161 160 163 175 169 167 163 165 164 160 154 153 150
138 139 134 145 172 180 251 327 349 307 297 288 292 289 293 296 294 287 277 269 266 263 243 220 194 188 191 187 180 169 161 157 156 175 164 164 172 171 173 170 167 165 156
151 157 174 170 120 294 278 312 319 294 284 285 288 291 294 292 294 291 286 277 272 266 252 249 213 210 196 194 186 178 176 173 173 172 166 160 175 174 178 176 182 173 165
137 131 142 159 250 244 273 293 283 284 286 289 290 285 283 284 288 291 287 283 280 277 268 252 243 240 231 210 197 189 175 162 157 162 165 155 173 176 182 190 191 181 173
144 206 238 261 261 277 279 284 293 294 290 287 285 283 279 278 281 275 273 277 287 286 289 278 262 247 232 211 190 177 158 152 147 164 175 151 165 152 170 178 182 187 182
270 289 292 283 287 286 294 298 295 289 282 279 280 281 279 279 279 272 268 274 277 282 290 280 245 229 225 208 194 192 173 165 154 145 180 154 159 142 154 185 188 188 186